• In Hungary
  • List of Countries
  • For 7 days
  • Water Temperature
  • Satellite Maps
  • Weather Map
  • News
  • Weather Widgets
  • user-avatar
    Login

    Hourly Weather Mostovka

    Today, 17 December, Sunday

    Time Temperature Precipitation Wind Pressure Humidity
    00:00 -13°C° 0.2 mm 2 mps 697 mmHg 93%
    01:00 -13°C° 0 mm 2 mps 696 mmHg 93%
    02:00 -13°C° 0.2 mm 2 mps 696 mmHg 93%
    03:00 -13°C° 0.2 mm 2 mps 696 mmHg 93%
    04:00 -13°C° 0.2 mm 3 mps 696 mmHg 93%
    05:00 -13°C° 0.2 mm 3 mps 695 mmHg 92%
    06:00 -14°C° 0.2 mm 4 mps 695 mmHg 91%
    07:00 -12°C° 0 mm 3 mps 695 mmHg 91%
    08:00 -12°C° 0.2 mm 4 mps 695 mmHg 89%
    09:00 -12°C° 0.2 mm 5 mps 695 mmHg 87%
    10:00 -12°C° 0.2 mm 6 mps 695 mmHg 86%
    11:00 -12°C° 0.2 mm 6 mps 696 mmHg 85%
    12:00 -14°C° 0.2 mm 6 mps 696 mmHg 84%
    13:00 -13°C° 0 mm 5 mps 697 mmHg 84%
    14:00 -14°C° 0.1 mm 5 mps 697 mmHg 85%
    15:00 -16°C° 0.1 mm 4 mps 698 mmHg 87%
    16:00 -16°C° 0.1 mm 3 mps 698 mmHg 89%
    17:00 -17°C° 0 mm 3 mps 699 mmHg 91%
    18:00 -17°C° 0 mm 2 mps 699 mmHg 92%
    19:00 -18°C° 0 mm 2 mps 700 mmHg 94%
    20:00 -18°C° 0.1 mm 2 mps 700 mmHg 94%
    21:00 -17°C° 0.1 mm 2 mps 701 mmHg 93%
    22:00 -18°C° 0.1 mm 3 mps 701 mmHg 93%
    23:00 -17°C° 0.1 mm 3 mps 701 mmHg 92%

    Tomorrow, 18 December, Monday

    Time Temperature Precipitation Wind Pressure Humidity
    00:00 -17°C° 0.1 mm 3 mps 701 mmHg 92%
    01:00 -17°C° 0.1 mm 4 mps 701 mmHg 91%
    02:00 -17°C° 0.1 mm 4 mps 701 mmHg 91%
    03:00 -17°C° 0.1 mm 4 mps 701 mmHg 91%
    04:00 -17°C° 0.1 mm 4 mps 701 mmHg 90%
    05:00 -16°C° 0.1 mm 3 mps 701 mmHg 91%
    06:00 -17°C° 0.1 mm 3 mps 701 mmHg 92%
    07:00 -16°C° 0.1 mm 2 mps 701 mmHg 93%
    08:00 -16°C° 0 mm 3 mps 702 mmHg 91%
    09:00 -15°C° 0 mm 3 mps 702 mmHg 89%
    10:00 -14°C° 0 mm 3 mps 703 mmHg 87%
    11:00 -13°C° 0 mm 3 mps 702 mmHg 85%
    12:00 -12°C° 0 mm 3 mps 702 mmHg 84%
    13:00 -10°C° 0 mm 3 mps 701 mmHg 82%
    14:00 -12°C° 0 mm 2 mps 701 mmHg 85%
    15:00 -13°C° 0 mm 2 mps 701 mmHg 88%
    16:00 -14°C° 0 mm 2 mps 700 mmHg 91%
    17:00 -12°C° 0.1 mm 1 mps 700 mmHg 92%
    18:00 -12°C° 0.1 mm 1 mps 700 mmHg 93%
    19:00 -11°C° 0.1 mm 1 mps 700 mmHg 94%
    20:00 -13°C° 0.2 mm 2 mps 699 mmHg 93%
    21:00 -13°C° 0.2 mm 2 mps 699 mmHg 93%
    22:00 -12°C° 0.2 mm 2 mps 699 mmHg 93%
    23:00 -12°C° 0.2 mm 2 mps 698 mmHg 93%

    Day after tomorrow, 19 December, Tuesday

    Time Temperature Precipitation Wind Pressure Humidity
    00:00 -12°C° 0.2 mm 3 mps 698 mmHg 93%
    01:00 -12°C° 0.2 mm 3 mps 698 mmHg 93%
    02:00 -12°C° 0.2 mm 3 mps 697 mmHg 93%
    03:00 -12°C° 0.2 mm 3 mps 697 mmHg 92%
    04:00 -11°C° 0.2 mm 4 mps 697 mmHg 92%
    05:00 -11°C° 0.3 mm 4 mps 696 mmHg 92%
    06:00 -11°C° 0.3 mm 4 mps 696 mmHg 93%
    07:00 -11°C° 0.3 mm 4 mps 696 mmHg 93%
    08:00 -10°C° 0.3 mm 4 mps 696 mmHg 92%
    09:00 -11°C° 0.3 mm 5 mps 696 mmHg 91%
    10:00 -10°C° 0.3 mm 5 mps 696 mmHg 89%
    11:00 -10°C° 0.3 mm 5 mps 696 mmHg 88%
    12:00 -10°C° 0.3 mm 5 mps 697 mmHg 88%
    13:00 -10°C° 0.3 mm 5 mps 697 mmHg 87%
    14:00 -11°C° 0.1 mm 5 mps 697 mmHg 87%
    15:00 -10°C° 0.1 mm 4 mps 698 mmHg 88%
    16:00 -10°C° 0.1 mm 3 mps 698 mmHg 89%
    17:00 -12°C° 0 mm 3 mps 699 mmHg 91%
    18:00 -12°C° 0 mm 2 mps 699 mmHg 93%
    19:00 -11°C° 0 mm 1 mps 700 mmHg 94%
    20:00 -12°C° 0.1 mm 2 mps 700 mmHg 94%
    21:00 -10°C° 0.1 mm 2 mps 700 mmHg 94%
    22:00 -10°C° 0.1 mm 2 mps 701 mmHg 93%
    23:00 -10°C° 0.1 mm 3 mps 701 mmHg 91%

    20 December, Wednesday

    Time Temperature Precipitation Wind Pressure Humidity
    00:00 -10°C° 0.1 mm 3 mps 700 mmHg 88%
    01:00 -10°C° 0.1 mm 3 mps 700 mmHg 86%
    02:00 -12°C° 0 mm 3 mps 700 mmHg 85%
    03:00 -13°C° 0 mm 3 mps 700 mmHg 85%
    04:00 -13°C° 0 mm 2 mps 699 mmHg 84%
    05:00 -14°C° 0 mm 2 mps 699 mmHg 83%
    06:00 -14°C° 0 mm 2 mps 699 mmHg 82%
    07:00 -15°C° 0 mm 2 mps 699 mmHg 80%
    08:00 -13°C° 0 mm 2 mps 699 mmHg 78%
    09:00 -12°C° 0 mm 2 mps 699 mmHg 75%
    10:00 -9°C° 0 mm 2 mps 699 mmHg 72%
    11:00 -8°C° 0 mm 2 mps 699 mmHg 71%
    12:00 -7°C° 0 mm 2 mps 698 mmHg 70%
    13:00 -5°C° 0 mm 2 mps 697 mmHg 69%
    14:00 -7°C° 0 mm 2 mps 697 mmHg 72%
    15:00 -8°C° 0 mm 1 mps 697 mmHg 76%
    16:00 -10°C° 0 mm 1 mps 696 mmHg 80%
    17:00 -11°C° 0 mm 1 mps 696 mmHg 80%
    18:00 -12°C° 0 mm 1 mps 696 mmHg 79%
    19:00 -13°C° 0 mm 1 mps 696 mmHg 79%
    20:00 -13°C° 0 mm 1 mps 696 mmHg 79%
    21:00 -14°C° 0 mm 1 mps 696 mmHg 79%
    22:00 -14°C° 0 mm 1 mps 696 mmHg 79%
    23:00 -14°C° 0 mm 1 mps 696 mmHg 79%

    21 December, Thursday

    Time Temperature Precipitation Wind Pressure Humidity
    00:00 -14°C° 0 mm 1 mps 696 mmHg 79%
    01:00 -14°C° 0 mm 1 mps 696 mmHg 78%
    02:00 -14°C° 0 mm 1 mps 696 mmHg 78%
    03:00 -15°C° 0 mm 1 mps 696 mmHg 78%
    04:00 -15°C° 0 mm 1 mps 696 mmHg 77%
    05:00 -15°C° 0 mm 1 mps 696 mmHg 77%
    06:00 -15°C° 0 mm 1 mps 696 mmHg 77%
    07:00 -15°C° 0 mm 1 mps 696 mmHg 77%
    08:00 -14°C° 0 mm 1 mps 696 mmHg 76%
    09:00 -12°C° 0 mm 1 mps 696 mmHg 76%
    10:00 -11°C° 0 mm 1 mps 697 mmHg 76%
    11:00 -9°C° 0 mm 1 mps 697 mmHg 75%
    12:00 -8°C° 0 mm 1 mps 696 mmHg 74%
    13:00 -7°C° 0 mm 1 mps 696 mmHg 73%
    14:00 -9°C° 0 mm 1 mps 696 mmHg 76%
    15:00 -10°C° 0 mm 1 mps 696 mmHg 80%
    16:00 -12°C° 0 mm 1 mps 696 mmHg 84%
    17:00 -13°C° 0 mm 1 mps 696 mmHg 83%
    18:00 -14°C° 0 mm 1 mps 696 mmHg 82%
    19:00 -14°C° 0 mm 1 mps 696 mmHg 82%
    20:00 -14°C° 0 mm 1 mps 696 mmHg 81%
    21:00 -15°C° 0 mm 1 mps 696 mmHg 81%
    22:00 -15°C° 0 mm 1 mps 696 mmHg 80%
    23:00 -15°C° 0 mm 1 mps 696 mmHg 80%

    22 December, Friday

    Time Temperature Precipitation Wind Pressure Humidity
    00:00 -16°C° 0 mm 1 mps 696 mmHg 81%
    01:00 -16°C° 0 mm 1 mps 696 mmHg 81%
    02:00 -16°C° 0 mm 1 mps 696 mmHg 81%
    03:00 -16°C° 0 mm 1 mps 696 mmHg 81%
    04:00 -16°C° 0 mm 1 mps 696 mmHg 82%
    05:00 -16°C° 0 mm 1 mps 696 mmHg 82%
    06:00 -16°C° 0 mm 1 mps 696 mmHg 82%
    07:00 -16°C° 0 mm 1 mps 696 mmHg 82%
    08:00 -15°C° 0 mm 1 mps 697 mmHg 82%
    09:00 -13°C° 0 mm 1 mps 697 mmHg 81%
    10:00 -12°C° 0 mm 1 mps 697 mmHg 81%
    11:00 -11°C° 0 mm 1 mps 697 mmHg 79%
    12:00 -9°C° 0 mm 1 mps 696 mmHg 78%
    13:00 -8°C° 0 mm 1 mps 696 mmHg 76%
    14:00 -10°C° 0 mm 1 mps 696 mmHg 80%
    15:00 -12°C° 0 mm 1 mps 696 mmHg 84%
    16:00 -13°C° 0 mm 1 mps 695 mmHg 88%
    17:00 -14°C° 0 mm 1 mps 695 mmHg 88%
    18:00 -15°C° 0 mm 1 mps 695 mmHg 88%
    19:00 -16°C° 0 mm 1 mps 696 mmHg 88%
    20:00 -16°C° 0 mm 1 mps 695 mmHg 89%
    21:00 -16°C° 0 mm 1 mps 695 mmHg 89%
    22:00 -17°C° 0 mm 1 mps 695 mmHg 89%
    23:00 -17°C° 0 mm 1 mps 694 mmHg 89%
    Show more